Tracking 35048 objects as of 19-Aug-2026
HD Live streaming from Space Station
objects crossing your sky now

STARLINK-30536

Track STARLINK-30536 now!
10-day predictions
STARLINK-30536 is classified as:


NORAD ID: 57993
Int'l Code: 2023-153C
Launch date: October 5, 2023
Source: United States (US)
Launch site: AIR FORCE EASTERN TEST RANGE (AFETR)
Your satellite tracking list
Your tracking list is empty




NASA's NSSDC Master Catalog

Two Line Element Set (TLE):
1 57993U 23153C   26231.28524757  .00000293  00000-0  20161-4 0  9999
2 57993  43.0006 228.7732 0001290 266.6654  93.4051 15.27576315159768
Source of the keplerian elements: AFSPC